Location: *
(55.6049°S, 142.1985°W)
Time: 23:35:11
(UTC+00:00)

CSL-04 Rocket - Pass Details

Date: 12 May 2021
Orbit: 807 x 859 km, 98.9° (Epoch: 18 June)

Event Time Altitude Azimuth Distance (km) Brightness Sun altitude
Rises 16:09:01 0° 25° (NNE) 3,430 7.6 -9.0°
Reaches altitude 10° 16:11:24 10° 27° (NNE) 2,496 6.9 -8.7°
Maximum altitude 16:16:56 76° 110° (ESE) 890 4.0 -8.0°
Drops below altitude 10° 16:22:28 10° 195° (SSW) 2,491 5.8 -7.3°
Sets 16:24:50 0° 196° (SSW) 3,423 6.5 -7.0°
